Location: Saint-Hippolyte
(43.6394°N, 4.7559°E)
Time: 15:24:42
(UTC+00:00)

DMSP B5D1-3 - Pass Details

Date: 24 October 2020
Orbit: 768 x 780 km, 98.5° (Epoch: 24 November)

Event Time Altitude Azimuth Distance (km) Brightness Sun altitude
Rises 18:36:25 0° 13° (NNE) 3,265 7.7 -21.2°
Reaches altitude 10° 18:38:44 10° 13° (NNE) 2,335 6.9 -21.6°
Maximum altitude 18:43:54 88° 285° (WNW) 785 4.5 -22.5°
Drops below altitude 10° 18:49:02 10° 196° (SSW) 2,324 7.1 -23.5°
Sets 18:51:20 0° 196° (SSW) 3,249 7.9 -23.9°
